Simultaneous Nadir Overpasses (SNOs) Predictions

Prediction of SNOs between GOES-17 and METOP-C Satellite Orbit:

Table of predicted SNOs for the next 14.0 days since TLE Epoch: 5/23/2025
Index Date Time (GOES-17) GOES-17 Lat,Lon METOP-C Lat,Lon Distance(km) Time Diff (sec)
1 05/25/2025 16:27:40 0.02,-104.45 0.03,-104.55 11.78 80
2 05/28/2025 04:26:02 -0.01,-104.39 0.02,-104.15 26.98 80
3 05/29/2025 16:44:55 0.00,-104.44 0.96,-108.72 486.92 80
4 05/30/2025 16:26:57 0.00,-104.45 -0.17,-103.73 82.16 80
5 06/01/2025 04:45:58 0.00,-104.39 -0.85,-108.32 447.47 80
6 06/02/2025 04:22:38 0.00,-104.40 0.23,-103.32 121.89 80
7 06/03/2025 16:41:32 -0.01,-104.46 0.75,-107.89 390.97 80
8 06/04/2025 16:23:32 -0.01,-104.47 -0.33,-102.89 178.84 80
9 06/06/2025 04:42:34 0.01,-104.42 -0.68,-107.49 349.93 80
